Wind_Speed
49 49 50 51 52 54 55 57 58 58 58 58 58 58 58 59 59 59 60 60 61 61 61 60 59 58 60 63 66 68 68 68 68 68 68 69 69 70 70 68 66 65 64 64 65 66 66 67 69 72 75 76 77 78 80 81 81 81 79 74 68 63 60 60 61 61 61 62 65 66 66 65 65 64 63 64 63 63 63 59 60 61 58 55 56 57 54 55
49 49 49 50 51 53 55 57 58 58 59 59 59 59 59 59 58 58 59 59 60 61 61 61 60 59 59 61 64 68 70 70 70 71 70 70 71 72 73 72 70 69 68 66 66 67 67 67 68 70 72 73 75 77 80 81 82 81 78 74 68 64 63 64 64 64 64 65 67 68 68 67 66 65 66 67 65 66 65 60 62 61 56 54 54 54 54 57
49 49 48 49 50 52 54 56 57 58 58 58 59 59 59 59 58 58 58 58 59 60 61 62 61 60 60 62 63 66 69 71 72 73 72 72 73 73 75 75 74 72 71 70 69 69 68 68 69 69 70 71 72 75 78 80 81 79 77 73 67 65 66 67 68 68 68 68 69 70 70 69 67 67 68 68 65 67 65 61 63 62 55 54 54 52 54 57
49 48 47 48 50 52 53 55 56 56 57 57 58 58 58 58 58 58 58 58 58 59 60 62 62 62 62 63 64 65 67 71 73 74 74 75 76 75 76 76 76 76 74 73 72 71 71 70 71 70 70 70 71 74 75 77 78 78 76 71 66 67 69 70 71 72 73 72 72 72 72 69 67 67 68 68 68 66 63 61 63 62 60 58 54 52 52 54
49 47 47 49 51 52 53 53 54 55 55 55 56 56 57 57 57 57 57 58 58 59 60 61 63 64 64 64 65 66 66 68 72 76 76 77 78 78 77 77 78 78 78 77 76 75 74 73 73 72 71 70 72 73 72 74 76 77 75 69 67 69 70 72 75 76 76 75 74 74 72 70 68 69 69 69 68 64 62 63 64 64 64 60 53 53 52 52
49 48 49 51 53 53 53 53 53 53 52 52 53 53 53 54 55 55 56 57 58 59 60 61 63 64 65 66 67 68 68 67 70 76 79 79 79 79 79 79 79 80 80 80 79 78 77 77 75 74 72 71 72 72 71 73 75 76 72 68 67 70 72 74 77 78 77 77 77 75 73 72 72 71 69 68 66 64 64 64 65 66 65 58 53 54 53 52
50 50 52 53 55 55 55 54 52 51 50 49 49 49 49 50 51 53 55 56 58 59 60 62 63 65 66 67 68 70 70 68 69 76 79 79 80 81 81 82 81 81 82 82 82 81 80 80 78 77 75 73 72 72 73 75 75 72 68 66 67 70 74 76 78 78 78 79 77 76 76 75 74 71 69 69 66 65 66 65 65 65 62 58 55 55 53 50
53 54 55 56 58 58 57 55 53 51 49 47 47 47 47 48 49 51 53 55 57 58 60 61 63 64 66 67 70 72 72 71 71 75 77 78 81 83 83 84 84 83 83 83 84 84 83 83 82 81 78 76 74 74 75 76 74 69 64 64 66 70 75 77 79 78 78 80 79 78 78 76 73 72 73 71 66 65 67 65 66 65 61 60 57 55 54 49
56 57 58 59 61 61 60 58 55 52 50 49 48 48 49 50 50 51 53 55 56 58 60 61 63 63 64 66 69 73 74 72 73 76 77 78 80 82 84 85 86 86 86 85 85 86 86 86 85 84 82 79 77 76 75 75 71 66 63 64 66 71 75 77 78 77 78 80 79 78 76 75 74 75 76 70 65 64 66 68 68 65 60 60 58 56 56 50
60 61 62 63 64 65 64 61 58 55 52 51 51 52 52 52 53 53 53 54 55 57 59 60 62 63 64 65 68 73 74 71 74 78 79 80 80 81 83 86 88 88 89 88 87 86 87 88 88 87 84 81 79 77 75 72 69 66 66 67 69 74 75 75 76 75 77 79 78 76 74 76 77 79 74 67 65 66 68 71 70 66 61 60 60 58 57 52
63 64 65 66 68 68 68 64 60 57 55 54 54 54 55 54 54 53 52 52 53 55 56 58 60 62 64 65 69 73 70 68 74 81 82 82 82 82 82 85 88 90 91 91 90 89 88 88 89 88 86 84 82 80 78 73 69 69 70 70 71 73 72 72 72 72 76 77 75 73 75 79 81 78 68 63 67 70 72 73 72 69 64 62 62 58 55 53
66 67 67 69 70 72 71 67 62 59 57 57 57 57 57 55 53 51 50 50 51 53 55 57 58 61 63 66 72 73 67 66 72 79 84 85 86 86 84 84 87 90 92 92 93 92 91 89 89 88 87 86 85 82 79 75 72 72 71 70 71 71 69 67 68 70 73 73 71 73 78 81 78 71 62 64 71 73 73 72 71 70 66 64 63 58 55 55
69 69 70 72 73 75 75 70 65 62 60 59 59 59 58 55 52 50 49 49 51 53 55 57 58 60 63 68 75 74 70 69 70 75 82 87 89 89 88 87 87 88 91 93 95 94 94 92 90 88 88 86 85 84 80 77 75 73 71 71 71 70 66 64 65 67 68 69 70 75 79 77 70 63 61 68 74 74 71 71 72 71 69 65 62 60 58 57
71 71 73 75 76 78 78 73 68 65 63 62 61 61 58 54 51 49 49 50 52 54 54 55 55 57 60 67 73 72 71 72 74 76 80 85 89 91 91 90 89 88 89 93 95 96 96 95 93 90 88 86 85 84 82 81 78 75 74 72 70 68 63 63 64 64 64 65 70 76 75 68 63 62 65 72 74 72 71 71 72 71 69 64 61 61 59 56
72 74 75 78 79 81 81 77 72 69 66 65 63 61 57 53 50 49 51 52 52 52 51 50 50 52 56 62 65 66 68 71 75 79 81 83 87 91 93 93 92 91 90 91 94 96 97 97 95 92 90 87 85 84 83 83 81 78 76 71 66 64 63 64 64 62 62 64 69 73 67 60 61 64 69 73 71 71 72 71 70 68 66 64 61 59 57 54
74 76 78 80 81 83 83 80 75 71 69 67 65 61 56 52 50 51 53 52 50 48 46 46 46 48 53 57 59 60 62 65 70 75 80 85 88 90 92 94 95 95 93 92 92 94 96 97 97 94 92 89 87 85 83 83 81 78 75 68 65 65 65 65 63 62 62 63 67 66 60 57 61 64 68 70 70 72 73 70 67 64 64 67 63 56 54 52
76 78 81 82 83 85 85 82 78 74 71 68 66 61 55 51 51 52 52 50 48 44 43 43 44 47 50 52 55 56 57 59 62 67 74 82 87 90 91 93 96 97 97 95 94 93 94 97 98 97 95 92 89 86 85 82 77 75 72 68 68 68 67 66 64 63 63 62 62 60 58 59 61 63 67 70 70 70 69 67 65 63 67 71 63 52 50 50
78 81 83 83 84 86 86 84 80 77 73 70 66 60 54 52 53 53 51 47 44 42 42 42 42 45 46 47 51 53 52 54 56 61 68 75 82 87 90 92 95 99 99 99 97 95 93 94 97 98 97 94 91 88 83 76 71 72 72 73 74 71 67 65 64 64 63 61 59 59 59 58 59 63 66 69 68 65 65 66 67 68 71 71 62 52 48 47
80 83 84 85 86 87 87 85 82 78 75 71 67 60 54 53 54 53 51 46 42 41 41 40 40 42 43 44 47 48 49 51 53 57 63 68 74 81 86 89 92 96 100 101 100 98 96 95 96 97 97 94 91 88 81 75 74 76 78 80 78 73 67 64 64 64 64 64 60 59 58 57 59 61 62 63 63 62 63 68 70 70 71 69 62 54 48 47
82 84 85 87 88 89 88 86 83 79 76 72 68 60 54 54 54 52 50 45 41 41 41 37 38 40 40 40 43 45 46 47 49 54 58 61 66 73 80 84 86 90 96 100 102 102 100 98 95 93 94 94 93 90 84 80 81 81 82 82 79 73 69 66 66 65 66 65 60 59 61 60 58 56 57 60 63 62 64 70 70 68 67 64 60 54 49 47
83 85 87 89 90 90 89 87 84 80 76 73 68 60 55 55 54 50 48 44 38 39 41 38 37 38 38 38 40 42 45 45 46 49 54 57 60 67 73 77 80 84 89 96 102 104 103 99 93 89 90 94 95 93 89 86 85 83 81 79 77 74 71 68 66 65 66 64 59 61 66 60 54 54 57 61 63 61 63 68 66 63 62 60 58 52 47 46
84 87 89 91 92 91 90 88 85 80 76 73 67 60 57 57 54 49 46 44 39 35 36 36 36 37 37 37 38 38 41 44 45 46 48 52 56 62 66 69 74 78 82 89 97 102 102 97 91 88 90 94 97 96 93 90 88 85 81 78 76 73 71 70 66 65 65 62 60 64 66 58 53 57 60 59 57 56 59 63 61 59 58 57 55 49 46 46
86 89 91 93 94 93 91 89 85 80 76 73 67 60 58 58 56 52 46 43 41 37 34 34 34 35 35 37 37 36 36 40 44 45 45 47 52 58 62 63 67 73 77 82 89 96 97 94 92 93 94 96 98 98 96 93 90 85 82 78 73 71 71 69 65 64 65 63 63 65 66 60 57 59 58 53 51 54 57 58 58 57 54 53 51 46 46 45
88 91 93 94 95 94 92 89 85 80 77 73 67 61 60 60 57 54 49 44 41 39 35 33 33 32 33 36 36 34 34 36 40 43 44 46 49 53 58 60 61 65 71 75 82 88 90 92 96 99 99 98 98 99 98 95 91 86 82 77 71 69 70 69 68 68 67 66 67 66 67 62 57 58 55 50 50 54 54 53 54 52 47 46 46 45 45 43
89 92 94 96 96 95 93 90 85 80 77 74 68 62 60 60 57 53 50 47 43 39 36 33 33 31 30 33 34 32 33 34 37 41 42 45 46 48 53 56 56 58 66 72 77 81 84 89 98 102 101 98 96 96 97 95 92 87 82 76 72 68 69 73 73 72 70 67 65 65 65 60 56 58 55 51 51 52 51 50 47 42 39 41 44 45 42 37
89 92 94 96 97 95 93 90 86 80 77 74 68 62 60 61 58 53 50 47 44 41 37 33 32 31 28 30 31 30 31 33 35 39 41 42 44 47 47 50 53 55 61 68 73 74 76 85 95 100 100 98 95 94 96 96 93 88 81 77 74 71 71 75 75 74 70 63 62 65 65 61 59 59 55 51 50 51 50 46 40 34 34 40 44 42 34 31
90 92 95 97 98 96 93 90 85 80 77 74 68 63 61 61 59 54 49 46 44 41 38 34 31 30 29 28 28 28 28 30 34 38 40 39 40 44 45 46 51 53 56 63 67 66 69 80 91 95 97 97 95 93 94 96 93 87 82 80 77 74 73 73 74 74 68 65 67 69 67 64 61 57 54 52 51 52 49 42 36 32 34 40 40 34 29 30
91 93 95 97 98 97 94 90 86 80 77 74 68 64 62 62 60 56 51 46 43 42 39 35 32 29 28 27 25 25 26 27 32 36 38 38 37 39 43 45 47 49 50 53 57 60 68 79 87 91 95 96 95 92 93 96 93 88 85 83 79 76 75 74 76 75 72 73 73 69 67 63 57 54 55 54 53 51 46 39 36 35 37 39 37 32 29 31
91 93 95 97 98 97 94 91 86 81 78 74 69 66 65 63 61 57 53 48 44 43 41 37 34 30 27 27 24 23 23 24 28 33 35 35 34 36 40 42 43 44 43 44 50 60 68 76 82 88 92 94 93 93 94 94 93 90 89 86 82 81 79 78 78 78 79 80 73 67 66 57 51 54 56 54 52 48 44 40 37 37 39 39 36 33 32 32
92 93 95 97 98 97 94 91 86 81 78 75 70 67 66 65 62 57 53 49 46 43 42 39 36 32 28 26 25 23 22 22 24 28 31 32 32 33 36 39 39 40 38 39 49 59 66 72 78 83 86 89 92 93 93 92 93 94 94 91 87 85 84 83 81 81 86 84 72 67 63 54 52 55 54 52 49 46 44 42 38 37 39 38 35 33 32 31
92 93 95 97 97 97 94 89 83 79 76 74 70 68 68 66 62 57 53 50 46 43 41 40 36 33 30 26 24 22 20 20 21 23 26 29 30 30 33 35 36 38 36 38 48 58 62 67 72 77 81 87 92 93 91 90 94 98 98 95 92 88 88 87 84 85 87 81 69 64 63 56 53 52 51 51 49 46 46 43 39 38 39 37 33 31 30 29
92 94 95 96 97 96 92 87 81 78 76 74 70 68 68 66 62 58 54 50 47 43 40 38 35 32 30 26 22 19 17 17 18 19 21 25 26 27 29 31 32 35 35 38 48 54 57 62 68 74 80 87 92 93 91 91 96 101 100 98 95 93 93 90 86 85 79 70 62 61 61 53 48 48 52 53 49 46 46 44 42 40 39 37 33 31 30 29
92 94 95 96 96 96 92 87 82 79 77 74 70 68 68 65 62 59 55 51 47 43 38 36 35 31 27 26 22 16 13 14 15 15 17 21 22 23 26 27 29 32 32 36 43 47 50 57 65 70 77 84 90 91 91 91 96 100 101 99 97 95 92 88 85 78 66 60 61 63 59 49 46 50 54 53 49 47 47 46 44 41 39 37 34 32 30 30
92 94 95 96 96 95 92 87 81 78 76 73 69 66 65 65 64 60 57 53 49 44 39 36 35 32 28 25 22 17 13 12 12 12 14 17 19 20 22 24 26 29 31 34 40 43 47 54 61 67 73 80 85 88 89 91 94 98 100 99 96 94 89 84 78 65 55 58 65 66 57 49 48 52 55 55 51 49 49 47 45 41 39 39 35 31 29 26
91 94 95 96 95 93 90 84 79 76 75 73 68 65 65 66 64 59 56 52 47 44 41 37 34 32 29 26 23 20 17 13 10 10 12 14 15 17 19 22 24 28 31 35 39 43 47 53 60 67 73 79 84 87 90 92 94 98 101 100 98 94 87 80 70 59 57 65 71 68 58 52 52 56 60 58 51 49 49 46 44 41 39 38 34 29 26 24
91 93 95 95 94 90 86 81 77 74 74 72 69 66 66 67 63 58 54 50 45 41 39 37 34 30 28 25 22 20 18 15 12 9 9 10 12 14 17 20 23 27 30 34 38 42 46 51 59 66 72 78 85 90 93 93 92 95 100 100 97 91 85 78 70 67 71 75 74 69 61 58 59 60 61 57 49 50 50 46 43 40 38 38 33 28 26 25
91 93 94 94 91 87 82 78 74 73 72 72 70 69 68 67 63 58 53 50 46 41 37 35 35 31 27 24 22 19 17 15 12 8 6 7 9 12 14 18 22 26 29 33 37 41 44 49 57 63 70 77 84 90 93 93 93 96 99 98 95 90 86 81 76 78 81 77 71 68 64 62 61 59 57 54 49 50 49 45 43 40 39 38 34 29 28 27
91 93 94 93 89 83 78 75 72 71 71 70 69 68 68 66 61 56 53 51 47 43 39 36 35 32 29 25 21 18 16 14 11 8 4 5 6 9 13 17 21 24 29 33 36 41 45 49 55 62 69 76 82 87 91 92 94 95 96 97 97 95 91 87 84 84 81 72 66 67 66 63 59 58 57 54 50 49 48 45 41 39 39 38 34 31 30 28
91 93 93 92 86 80 76 72 70 70 70 69 68 67 67 65 60 57 54 52 48 44 40 37 35 33 30 26 22 18 15 12 10 7 4 2 3 7 11 15 19 23 28 32 36 40 44 49 55 61 67 72 78 84 89 91 91 92 95 98 99 97 92 89 87 84 77 68 65 68 67 61 58 59 58 56 54 50 47 45 42 41 40 38 37 34 31 28
91 92 92 89 83 78 75 72 70 69 69 68 66 65 65 63 61 58 55 52 49 45 40 36 33 32 30 27 23 20 16 13 9 6 4 1 2 5 9 14 18 22 26 31 35 38 42 47 53 59 65 69 74 80 86 89 89 90 94 97 98 95 92 89 86 80 73 68 67 67 64 61 60 61 60 59 59 53 48 47 45 44 43 41 40 36 31 28
91 93 91 86 80 77 76 73 69 68 67 66 64 62 61 61 60 58 55 52 49 45 40 36 33 31 30 27 24 20 17 13 9 7 5 3 3 5 9 13 17 20 25 29 33 37 40 45 50 55 62 68 74 81 87 89 89 89 92 96 97 94 90 87 82 77 71 68 66 63 61 61 62 61 60 62 62 55 51 50 48 47 47 44 41 35 31 29
92 93 90 84 79 78 77 72 68 66 66 65 64 61 61 62 62 58 54 51 48 44 40 37 34 32 29 27 24 20 16 12 9 8 7 4 4 5 8 12 16 20 24 28 31 35 38 43 49 55 62 70 77 84 89 92 92 92 94 96 97 94 90 85 79 73 69 66 64 61 60 62 64 64 63 64 63 56 52 51 50 50 49 46 40 35 31 30
91 91 88 83 78 76 74 70 67 67 67 67 66 64 62 63 62 58 54 51 48 45 41 37 34 32 31 28 24 20 16 12 10 9 8 6 5 6 8 11 16 19 23 26 29 32 37 42 49 57 65 71 77 84 91 97 98 96 96 96 97 96 92 86 79 75 72 68 65 63 62 63 66 67 67 66 63 57 53 52 51 51 51 47 40 35 34 32
91 88 85 81 78 76 72 67 65 66 67 67 66 64 63 63 60 56 52 50 48 45 41 38 35 33 31 28 23 20 16 12 10 9 9 7 6 7 9 11 15 18 22 27 30 32 36 41 47 55 63 70 76 83 92 99 99 97 95 95 96 96 93 88 83 80 77 73 69 66 64 65 66 68 68 66 61 56 54 53 52 51 50 44 38 37 37 34
91 87 83 80 77 75 71 66 62 62 63 63 63 62 62 62 59 55 53 51 49 45 41 36 34 32 29 26 22 18 15 12 10 10 9 9 7 8 9 10 13 17 21 26 30 33 36 40 44 51 59 66 71 79 88 94 96 95 93 93 94 94 93 90 87 84 79 75 71 69 67 66 67 67 67 65 61 58 56 55 53 51 48 42 39 40 39 36
89 86 82 80 77 73 69 63 59 58 58 59 60 61 61 60 58 56 54 52 49 45 40 35 33 31 28 25 21 17 14 11 10 10 10 10 9 8 9 11 12 15 19 25 30 33 36 39 43 49 57 65 71 78 86 91 93 92 90 90 92 92 90 90 89 86 80 75 73 71 69 68 67 65 63 63 62 60 59 58 55 51 47 43 42 42 40 37
87 83 81 80 78 74 70 63 58 56 57 58 60 60 57 56 56 56 54 51 49 45 40 36 33 30 28 25 21 17 14 12 11 11 10 10 9 7 9 12 13 14 18 24 29 33 35 38 41 46 54 63 71 79 86 91 93 91 88 88 88 88 88 89 87 83 79 77 75 72 70 68 65 62 60 60 60 59 60 60 56 49 46 45 45 44 41 37
84 81 80 79 77 73 69 64 59 57 58 59 59 57 56 55 56 56 53 50 48 46 41 38 35 32 29 27 23 19 16 13 12 13 11 10 10 8 9 13 14 15 18 22 28 32 35 37 40 44 50 58 67 74 82 89 93 93 91 89 88 88 88 88 85 81 80 78 73 70 69 67 63 59 57 55 55 56 58 58 53 46 44 45 44 43 41 37
83 80 79 78 75 70 66 62 58 56 57 56 56 56 55 55 55 54 52 49 48 46 42 39 36 32 30 28 24 20 17 15 13 13 12 10 10 9 11 14 15 15 18 21 26 31 35 38 41 44 49 56 64 71 77 85 92 94 92 90 89 89 89 88 86 82 79 74 70 68 67 64 59 56 52 50 50 53 54 51 46 41 39 40 42 42 39 36
82 80 78 77 74 69 64 60 56 54 55 54 55 55 54 53 53 52 51 48 47 45 42 38 35 32 30 29 26 22 18 16 14 13 13 11 10 10 13 16 16 16 17 21 26 31 35 38 42 45 49 55 62 68 74 82 90 93 93 92 91 90 91 91 88 84 77 71 69 68 65 61 57 54 50 48 48 50 49 44 39 35 35 38 40 39 37 35
80 78 76 76 74 68 63 59 55 53 53 52 53 53 52 51 51 51 49 47 45 44 41 38 36 33 30 28 26 21 18 16 14 13 13 12 11 10 12 16 16 15 16 20 26 31 34 38 41 44 49 54 60 67 73 81 90 94 94 92 91 91 92 91 88 83 75 72 71 69 64 60 57 53 51 50 50 49 45 40 36 34 35 37 38 36 34 34
79 76 74 73 71 66 61 57 54 51 50 50 51 51 51 50 50 49 48 46 45 42 40 38 37 33 28 26 25 21 17 16 15 14 13 12 12 10 12 16 17 16 17 20 25 30 34 37 41 44 48 54 60 67 73 82 91 95 93 91 91 92 92 92 88 82 77 76 74 69 63 59 55 54 53 52 50 47 42 38 35 34 35 35 34 34 34 34
Wind_Direction
307 306 306 304 303 300 297 295 293 292 290 288 287 285 283 282 280 278 277 275 272 270 268 266 263 260 257 254 251 250 249 248 248 247 245 243 241 240 238 238 237 236 236 235 236 236 234 234 234 234 234 233 233 234 234 234 233 233 233 232 231 230 230 231 231 231 231 231 233 236 237 237 237 237 237 239 238 238 239 238 239 239 238 237 235 237 238 239
310 309 308 307 305 302 300 298 296 294 292 290 288 287 285 283 281 280 278 275 273 270 268 266 264 261 258 256 253 250 248 247 247 246 245 244 242 240 239 238 237 236 235 235 235 235 235 234 233 234 234 233 233 233 234 234 234 233 233 232 230 229 230 230 231 230 230 230 233 235 235 235 236 236 236 237 238 238 238 237 239 238 237 238 236 236 238 239
313 312 311 310 308 306 304 301 299 296 294 292 291 289 287 285 283 281 279 276 273 270 268 265 263 261 258 256 254 251 248 246 246 246 245 244 242 240 239 238 237 236 235 235 234 235 235 234 233 233 233 233 233 233 234 234 234 234 233 231 229 228 228 229 230 230 230 230 231 233 235 235 235 236 237 237 238 239 238 237 241 241 238 238 238 237 237 238
317 316 315 314 313 311 309 306 302 300 297 295 293 291 289 287 285 282 280 276 273 270 267 265 263 260 258 256 254 252 249 246 245 245 244 243 243 241 239 238 237 236 235 235 234 234 234 234 233 232 232 232 232 232 233 234 235 234 232 230 228 227 227 228 229 229 230 230 231 233 234 235 235 237 238 237 237 239 239 239 241 241 238 236 237 238 237 239
320 319 318 318 318 316 313 311 307 304 301 298 295 292 290 287 284 281 278 276 272 269 267 264 262 260 258 256 254 252 250 247 245 244 243 243 242 241 240 239 237 236 235 235 234 234 234 234 233 232 231 231 232 232 232 233 234 233 231 228 226 226 226 226 228 228 229 230 230 232 233 234 235 236 237 238 238 238 240 240 241 241 239 235 236 239 238 241
323 323 322 322 322 321 319 316 313 309 305 301 297 293 290 287 283 280 277 274 271 268 266 263 260 259 257 255 254 252 250 248 246 244 242 241 241 241 240 239 238 236 235 235 234 234 233 234 233 233 232 230 231 232 232 232 233 232 230 227 225 226 226 226 227 227 228 229 230 231 232 233 234 235 237 239 239 239 239 241 241 241 241 238 235 239 240 241
326 326 326 326 326 326 324 321 318 315 310 305 301 297 294 290 287 283 279 275 272 269 266 263 260 257 256 254 253 251 250 248 246 245 243 241 240 240 239 239 238 236 235 234 234 233 233 234 233 233 232 231 230 231 231 231 232 231 229 227 225 225 226 225 226 226 227 229 229 230 232 232 233 234 236 238 239 239 240 241 243 242 242 240 236 237 238 240
329 329 329 330 330 330 329 326 323 319 315 310 306 303 299 295 290 286 282 279 276 272 269 265 262 259 256 254 252 251 249 248 246 245 244 242 240 238 238 238 237 236 235 234 233 233 233 233 233 233 232 231 230 229 230 231 231 230 228 227 225 225 225 225 226 225 226 228 228 229 231 232 233 234 235 235 236 240 241 241 242 241 241 241 237 235 236 238
331 332 332 333 333 333 333 330 327 324 320 316 313 310 305 300 294 289 284 280 277 274 271 268 265 262 259 255 252 250 248 247 246 246 244 243 242 239 237 237 236 236 235 234 233 233 232 232 233 233 232 231 231 230 230 231 231 229 228 227 225 225 225 225 225 225 225 228 228 228 230 232 233 233 234 234 235 240 242 241 242 241 241 243 240 237 237 236
333 334 335 336 336 337 336 334 330 327 324 321 318 315 311 305 299 293 288 283 279 274 271 268 266 264 261 258 254 250 247 246 246 246 244 243 243 241 238 237 236 235 234 234 233 232 232 232 232 232 232 232 231 231 231 230 230 229 227 225 224 224 224 224 225 225 226 227 228 228 229 231 232 232 232 233 234 237 240 241 241 240 239 241 241 238 238 237
334 335 336 338 339 339 339 336 333 330 328 325 322 319 315 309 303 298 292 287 282 277 273 269 266 264 262 259 256 252 248 245 243 244 244 243 242 242 240 237 236 235 234 233 233 232 231 231 231 232 231 232 231 231 230 229 228 228 226 225 225 225 224 224 225 225 226 228 228 228 229 230 231 232 231 233 235 236 238 239 240 239 236 238 239 237 239 240
335 336 337 339 341 342 341 338 335 333 330 328 325 322 317 311 306 300 295 289 284 279 275 271 268 265 263 260 257 255 251 246 241 241 242 243 242 241 240 238 236 235 234 233 232 232 231 231 231 231 230 231 231 230 230 229 227 227 226 226 226 227 225 224 225 225 227 228 228 228 229 230 231 232 231 233 236 237 238 240 241 240 238 237 238 237 238 240
335 336 338 340 342 343 342 340 337 335 333 330 327 323 318 313 308 302 296 291 286 282 278 274 270 267 263 260 257 256 253 249 244 240 239 240 241 240 239 238 237 235 234 233 232 232 231 231 230 230 230 230 230 230 230 229 228 227 227 225 225 226 225 224 225 226 227 228 229 229 229 230 232 232 231 233 236 237 238 240 241 241 239 237 237 236 235 238
335 336 338 340 342 343 343 341 339 337 335 332 329 325 320 315 310 305 299 294 290 286 282 278 273 268 263 258 256 255 253 250 247 243 240 238 238 239 239 238 238 236 234 233 232 232 231 231 230 230 229 229 229 229 228 229 228 227 226 225 225 225 224 224 225 225 225 227 229 230 230 230 231 231 231 233 235 237 238 239 240 241 241 238 237 236 234 235
335 336 338 339 341 343 344 342 341 339 336 334 331 327 322 317 312 308 303 299 296 292 287 281 275 270 264 259 257 254 251 248 246 244 243 240 238 237 237 237 237 237 235 233 232 231 231 230 230 229 229 228 228 228 227 227 227 226 226 225 225 225 224 224 224 224 224 225 229 230 229 229 230 230 231 232 234 236 238 239 240 242 244 242 237 235 235 233
336 337 338 339 341 343 344 343 341 340 337 335 332 329 324 319 315 312 308 305 300 296 290 283 276 269 264 261 259 255 251 247 244 242 242 241 240 237 236 235 236 236 235 234 232 231 230 230 229 229 229 228 227 227 226 226 226 226 226 225 224 224 223 224 224 223 223 224 227 229 226 226 228 229 231 233 233 234 236 238 240 243 245 244 238 233 235 234
336 337 338 339 341 343 344 344 342 340 338 336 334 331 326 321 319 316 313 309 305 300 292 283 277 270 266 264 262 258 254 249 245 242 240 239 240 239 236 234 234 234 235 234 233 231 230 229 228 228 227 227 227 226 226 226 226 226 227 225 224 223 221 221 222 222 223 224 227 227 224 222 225 227 229 231 231 233 236 238 240 241 243 244 239 231 232 233
337 337 338 340 342 343 344 344 342 340 339 337 335 332 328 325 323 320 316 312 308 302 293 286 280 275 271 266 263 260 257 253 247 243 240 238 237 238 237 235 232 232 232 233 233 232 230 229 228 227 226 226 226 226 226 226 226 226 226 225 224 223 221 219 220 221 222 223 224 225 223 221 223 225 226 229 230 232 235 237 237 237 239 241 240 234 231 233
337 338 338 340 342 344 345 344 343 341 339 338 337 334 330 328 327 324 320 317 312 302 294 290 285 278 274 270 265 262 257 253 249 244 241 238 236 236 237 235 233 231 231 231 232 232 230 229 228 226 225 225 226 226 225 223 223 223 223 223 223 222 220 219 219 220 221 221 221 223 222 220 221 224 226 228 230 230 231 234 235 235 237 240 241 238 234 234
338 339 339 341 343 344 345 345 343 341 340 339 338 335 332 331 331 328 323 320 316 307 300 295 288 282 277 272 268 265 260 254 249 246 244 240 237 236 236 235 233 231 230 229 230 231 230 229 227 226 225 224 224 225 222 220 221 221 221 222 221 220 218 217 218 218 220 220 218 221 222 219 219 222 225 227 228 227 228 232 234 235 238 240 242 241 238 237
339 340 341 342 344 345 346 345 343 342 340 339 339 337 335 334 334 332 325 322 318 310 305 301 293 287 282 275 269 267 265 260 253 248 245 242 239 237 236 236 235 232 230 228 228 229 229 228 226 225 224 223 223 223 221 220 220 221 221 221 220 218 217 217 217 217 220 219 216 221 223 218 216 221 222 223 226 225 226 231 234 235 238 241 242 241 238 237
341 341 342 343 344 345 346 346 344 342 341 340 340 338 337 337 336 334 329 324 320 313 307 302 296 291 286 280 274 268 265 263 260 253 247 243 241 240 237 234 234 233 230 228 227 227 227 226 225 225 224 223 222 221 221 220 220 220 221 220 219 218 217 217 217 217 219 218 216 221 223 217 214 220 221 221 224 226 227 231 234 235 237 240 241 240 236 234
342 342 342 343 345 346 347 346 344 342 342 341 340 339 339 339 339 336 333 329 324 318 312 304 298 293 289 283 278 273 266 262 261 258 252 246 241 240 240 235 232 232 231 229 227 226 226 224 223 224 223 222 220 219 219 219 219 219 220 220 219 217 217 217 217 218 218 217 216 220 222 216 213 219 220 219 223 225 227 229 232 234 234 237 240 239 236 232
343 343 343 343 345 346 347 346 344 343 342 342 341 341 342 342 342 339 335 333 328 322 316 309 301 295 290 285 281 277 272 264 260 258 255 251 245 239 240 238 232 230 230 230 227 226 224 222 221 222 222 221 219 218 218 218 218 218 219 219 219 217 217 217 217 218 217 216 216 218 220 216 214 219 219 217 221 225 227 227 230 232 232 236 238 236 234 232
344 343 343 343 345 346 347 346 345 343 343 343 342 342 343 344 343 341 337 334 331 325 320 313 305 299 293 287 283 279 274 268 261 257 254 251 249 243 238 238 235 229 227 228 227 225 221 219 220 220 220 220 218 217 217 217 216 216 217 217 217 216 216 216 217 218 217 215 217 219 220 216 215 219 218 217 221 224 226 226 227 229 228 232 234 233 232 230
345 344 343 344 344 346 347 346 345 344 344 344 343 343 345 345 345 343 340 336 333 328 322 317 310 304 297 288 284 279 273 268 263 258 254 249 248 247 241 237 236 231 226 225 226 224 219 217 219 219 218 218 217 216 215 215 215 215 215 215 215 215 216 216 216 218 217 215 216 220 219 215 214 217 217 217 221 224 225 224 223 220 219 225 230 230 229 226
345 344 344 344 344 346 347 346 345 344 344 344 343 343 346 347 346 344 343 339 334 329 325 322 316 310 304 295 288 282 274 268 264 259 256 251 245 245 244 238 235 232 226 223 224 222 218 217 218 218 216 215 215 214 214 214 213 212 213 214 213 213 215 216 216 217 216 214 214 217 218 214 212 215 216 217 219 222 224 221 217 214 216 223 227 225 220 219
345 345 344 344 344 346 347 346 345 345 345 345 344 344 347 349 347 346 345 342 337 331 327 325 321 317 311 302 294 286 277 267 262 259 257 254 247 243 242 240 237 233 227 222 221 220 217 216 216 216 215 213 212 212 212 212 211 210 212 213 212 212 214 215 216 216 215 216 213 214 217 213 209 213 215 216 217 220 221 218 212 214 219 223 224 220 214 216
345 345 344 344 344 345 346 346 345 345 345 345 345 345 347 349 349 347 346 344 340 334 330 329 327 324 318 310 302 292 281 268 260 259 258 255 249 242 240 240 238 235 228 220 218 217 216 215 214 214 213 211 210 210 210 210 208 208 211 212 211 211 212 213 214 213 215 217 213 212 217 210 204 212 215 215 217 218 219 216 211 213 220 221 220 217 215 217
345 345 344 344 344 345 346 346 345 345 346 346 346 346 348 350 349 348 348 346 343 338 333 331 330 328 324 318 311 302 290 276 262 258 257 255 250 243 240 239 238 235 226 215 215 216 215 214 213 213 212 210 209 208 209 207 205 207 210 211 210 210 212 213 213 212 214 215 210 209 215 207 200 209 215 215 215 216 216 214 209 210 216 217 214 212 213 216
345 344 344 344 344 345 346 346 344 345 346 347 347 347 348 349 349 349 349 348 345 341 336 332 331 331 328 322 316 309 298 282 270 261 257 254 250 244 240 237 234 233 224 212 213 215 213 212 212 211 210 210 208 207 207 204 203 206 208 210 210 209 211 212 211 212 213 212 206 207 212 207 199 205 214 215 212 212 214 212 207 204 210 212 207 207 210 212
344 344 344 344 344 345 345 344 344 345 348 348 348 348 347 348 350 350 350 350 346 343 338 332 333 334 329 325 321 315 302 288 277 267 258 253 249 243 238 235 231 229 222 211 212 214 210 209 210 208 206 208 207 205 204 203 203 205 207 209 209 209 211 211 211 212 212 209 206 209 212 206 196 201 214 216 210 209 211 210 204 200 206 209 202 202 207 211
344 344 345 344 344 344 344 344 345 347 348 348 348 348 347 348 351 351 350 351 348 343 340 336 336 338 334 329 328 323 310 297 286 274 261 254 249 241 236 233 228 226 221 213 213 213 208 207 208 207 205 206 205 203 202 202 202 204 206 208 209 210 211 211 212 212 208 205 207 211 210 201 192 198 212 215 208 206 208 207 203 198 205 210 202 202 207 211
343 344 344 345 344 344 344 345 347 348 348 348 348 346 347 350 353 352 351 351 349 344 343 343 341 341 340 337 336 335 325 309 294 279 265 255 248 241 233 228 222 219 215 211 209 208 205 204 204 204 204 205 205 202 201 202 202 203 205 208 210 212 212 212 213 210 206 206 210 211 204 194 191 197 210 214 205 203 206 206 203 199 206 212 205 202 208 212
343 344 344 345 344 343 344 346 347 347 348 348 347 346 349 352 353 353 352 351 350 347 346 346 346 346 345 344 344 343 335 323 308 288 269 256 247 239 230 223 217 213 210 207 205 204 202 200 201 201 201 202 202 201 201 202 202 202 204 206 209 211 211 211 211 206 206 209 211 209 198 190 192 196 208 213 202 201 207 206 204 201 207 214 207 202 209 214
344 344 344 344 344 343 344 346 346 347 348 348 347 348 351 353 352 353 352 351 352 352 350 347 348 352 350 347 349 347 339 330 320 302 275 257 244 235 226 218 213 210 207 205 202 200 199 197 198 200 200 199 199 199 199 200 201 202 204 206 208 209 209 209 206 204 207 209 208 205 195 191 194 195 206 212 201 200 208 207 205 204 208 215 209 203 210 217
344 344 344 344 343 343 345 345 346 347 348 348 348 349 352 352 351 352 352 353 355 355 355 352 351 354 355 354 353 351 344 335 327 316 283 254 235 224 216 211 208 206 204 203 200 198 196 195 196 198 198 198 198 198 197 197 199 201 203 204 206 207 208 207 205 205 208 207 205 203 197 194 196 196 205 212 203 200 207 208 207 207 211 216 211 206 212 218
344 344 344 343 343 344 345 345 346 348 349 350 350 350 350 350 350 352 354 356 357 356 357 357 354 354 357 359 358 357 352 343 334 328 302 249 223 212 206 202 202 203 201 200 198 196 193 192 194 195 197 198 198 197 196 196 198 200 201 203 205 206 206 205 205 206 207 205 202 203 199 195 196 199 204 211 208 202 206 210 209 209 212 216 215 211 214 219
343 344 343 343 343 343 345 346 347 349 350 351 351 350 349 349 351 354 356 357 358 359 360 359 357 356 358 360 1 4 3 355 346 343 332 268 205 198 197 194 194 197 198 198 197 195 193 191 191 193 196 197 197 196 196 196 197 198 199 202 205 205 205 205 205 206 206 202 201 204 200 193 196 202 203 210 213 205 204 209 212 214 215 217 219 216 215 220
343 343 343 343 343 343 345 348 349 350 351 351 351 350 347 349 353 356 358 359 359 360 1 0 359 359 360 1 3 6 8 5 3 4 4 25 160 182 188 188 189 191 194 195 195 194 192 191 191 192 194 195 195 196 196 196 196 198 199 201 204 205 205 205 206 206 204 202 202 204 199 193 197 204 203 209 215 208 203 207 212 217 219 219 221 220 217 222
343 343 343 343 344 345 347 350 350 350 350 351 351 349 347 351 356 357 359 0 0 359 1 2 3 2 3 4 5 6 9 10 14 25 37 63 127 167 181 182 184 186 189 192 193 192 191 189 189 191 192 192 192 194 195 195 196 198 199 200 203 205 206 206 206 205 204 202 203 203 200 196 200 205 205 209 215 211 205 207 210 216 222 222 222 222 219 223
343 342 343 344 345 347 349 349 349 349 350 351 351 350 351 354 357 358 360 1 2 1 2 4 5 5 5 6 6 6 10 16 25 40 49 64 111 149 174 177 179 183 185 189 191 190 188 187 186 188 190 191 191 191 192 193 195 197 199 199 201 202 205 207 206 205 204 203 203 203 202 201 202 204 206 210 214 212 208 209 212 216 222 224 223 224 224 228
342 343 343 345 347 349 349 348 348 349 350 352 351 351 354 356 357 357 360 2 3 3 3 5 7 7 7 7 7 7 10 20 36 50 58 69 106 138 161 175 178 181 182 184 186 186 186 186 186 187 189 191 191 191 191 192 194 196 198 198 199 199 201 204 204 204 204 203 203 203 203 204 204 205 208 211 213 213 212 213 216 219 223 225 225 227 230 232
342 343 344 346 348 349 348 348 349 350 351 351 350 351 354 356 356 357 360 3 5 4 4 5 6 7 8 7 7 7 6 17 41 57 69 79 102 132 152 173 178 179 181 179 179 182 184 185 187 188 190 192 192 191 191 192 193 195 197 197 198 198 198 200 202 203 202 201 201 202 203 205 207 207 209 212 213 214 216 217 218 221 225 226 227 230 233 235
342 343 345 346 348 348 347 349 350 351 351 349 349 353 355 355 354 357 1 3 5 5 4 6 7 7 8 8 8 9 7 15 43 62 75 87 102 125 147 169 175 177 181 179 176 178 181 183 185 188 190 192 192 192 192 194 194 194 195 196 198 198 197 198 201 202 201 200 200 201 202 205 208 208 209 212 213 215 218 220 220 222 226 227 228 232 235 236
342 343 345 346 347 347 347 349 350 351 350 349 351 356 356 353 355 359 1 3 4 4 4 7 10 9 10 11 10 15 17 21 45 64 76 90 103 125 147 161 169 177 182 180 177 176 179 181 183 186 189 190 190 191 193 194 195 194 195 196 197 198 197 198 200 201 200 199 200 201 202 204 207 207 208 211 214 215 219 222 222 223 226 228 230 234 236 237
342 343 344 345 346 346 346 348 350 351 350 352 355 356 354 352 356 0 1 2 4 4 5 8 12 13 15 17 16 21 28 33 50 64 74 89 100 121 148 154 161 174 182 182 178 175 176 178 181 185 189 190 190 191 192 193 194 193 193 195 197 198 198 200 201 200 199 200 200 201 202 204 206 206 207 210 213 216 220 223 224 223 225 228 231 235 237 237
342 343 344 344 346 347 345 347 349 351 352 354 355 354 352 354 359 0 0 2 4 5 7 9 10 12 17 21 22 26 32 39 53 65 72 87 100 119 145 148 154 169 180 182 178 174 174 175 178 183 188 190 191 192 192 192 192 192 192 193 195 197 199 201 202 202 201 201 201 201 203 205 205 205 206 208 212 216 220 223 224 224 225 228 232 235 235 234
342 343 343 344 345 346 345 346 349 351 353 355 354 353 353 356 359 360 359 3 5 5 8 10 9 10 15 22 26 29 35 41 53 66 74 85 101 122 141 143 149 165 175 178 177 174 172 173 177 181 185 189 190 192 193 192 191 191 191 191 193 196 198 200 202 203 203 202 202 204 205 205 206 206 206 207 211 216 220 221 222 222 224 227 230 231 231 230
341 342 343 343 345 347 346 346 348 351 353 354 353 353 354 356 359 360 360 2 5 5 7 10 11 11 14 20 25 30 36 41 50 64 75 84 99 123 139 141 145 159 169 175 176 174 173 174 176 179 183 186 188 190 192 192 191 191 192 191 192 194 197 199 200 202 202 201 203 205 206 205 205 206 206 208 212 217 219 218 218 218 221 224 227 227 228 229
340 341 342 343 345 346 346 345 348 351 353 354 353 353 355 357 358 359 360 2 6 6 7 10 13 14 14 18 23 29 37 43 49 60 72 84 98 119 136 138 140 149 162 173 176 174 173 174 175 178 181 184 186 188 190 191 191 192 193 192 191 192 196 198 199 199 199 201 204 205 204 204 205 205 206 209 212 215 216 213 211 213 219 223 225 226 228 228
338 340 342 342 344 346 346 345 347 350 352 353 352 353 355 357 358 358 0 3 6 7 8 11 13 13 15 18 20 26 38 48 54 60 69 83 96 114 132 136 137 144 156 170 175 174 173 173 175 177 180 182 185 187 188 191 191 191 193 193 192 191 194 197 198 197 198 201 204 203 201 202 204 206 208 210 212 215 214 212 209 211 216 220 223 226 227 226
Height
10665 10661 10657 10653 10648 10644 10639 10635 10631 10628 10625 10622 10620 10617 10615 10612 10610 10608 10606 10604 10603 10602 10601 10601 10601 10603 10603 10604 10604 10606 10608 10610 10613 10615 10617 10619 10622 10624 10626 10630 10634 10638 10641 10644 10645 10648 10653 10657 10660 10661 10666 10671 10676 10681 10681 10684 10688 10690 10697 10710 10723 10734 10742 10744 10746 10749 10753 10753 10751 10750 10751 10754 10759 10763 10768 10767 10772 10775 10774 10781 10780 10779 10788 10799 10804 10807 10812 10813
10659 10655 10651 10646 10642 10637 10632 10628 10624 10620 10617 10614 10611 10608 10606 10604 10602 10599 10597 10595 10593 10592 10591 10591 10592 10593 10594 10594 10595 10597 10599 10601 10604 10605 10608 10612 10613 10615 10617 10621 10626 10629 10632 10636 10638 10641 10644 10649 10652 10654 10658 10664 10669 10672 10672 10676 10679 10684 10695 10707 10720 10731 10736 10737 10738 10740 10743 10744 10744 10744 10744 10747 10751 10756 10759 10760 10765 10766 10769 10777 10774 10775 10787 10795 10800 10805 10807 10808
10653 10649 10644 10640 10635 10630 10625 10620 10616 10612 10608 10605 10602 10600 10597 10594 10592 10590 10588 10586 10584 10582 10581 10581 10582 10583 10583 10584 10585 10586 10588 10592 10594 10595 10600 10602 10603 10606 10609 10612 10617 10620 10624 10627 10630 10633 10636 10640 10643 10647 10651 10656 10661 10664 10664 10668 10672 10680 10691 10702 10717 10725 10726 10728 10729 10731 10733 10735 10736 10736 10737 10741 10747 10751 10752 10756 10760 10759 10767 10774 10769 10773 10786 10791 10795 10800 10802 10802
10647 10643 10638 10633 10628 10623 10618 10613 10608 10604 10600 10597 10593 10590 10587 10585 10583 10580 10578 10576 10574 10573 10572 10571 10571 10572 10573 10574 10575 10576 10578 10582 10584 10586 10590 10592 10593 10596 10599 10604 10608 10611 10615 10618 10622 10625 10628 10630 10633 10638 10643 10648 10652 10654 10657 10662 10667 10675 10683 10698 10713 10715 10717 10719 10720 10722 10723 10726 10728 10728 10731 10737 10744 10746 10746 10750 10754 10756 10766 10769 10764 10769 10778 10786 10791 10795 10798 10798
10641 10636 10632 10627 10621 10616 10610 10605 10600 10596 10591 10587 10584 10581 10578 10575 10572 10570 10568 10565 10564 10563 10562 10561 10560 10561 10562 10563 10564 10566 10568 10572 10574 10575 10579 10581 10582 10587 10591 10595 10598 10602 10606 10610 10613 10616 10619 10621 10625 10630 10635 10641 10643 10646 10653 10657 10659 10664 10675 10693 10704 10705 10708 10709 10709 10712 10714 10717 10721 10722 10727 10734 10739 10739 10740 10744 10750 10757 10762 10761 10760 10762 10768 10783 10791 10790 10794 10796
10634 10630 10625 10620 10615 10608 10603 10597 10592 10587 10583 10578 10575 10571 10568 10565 10561 10559 10557 10555 10553 10552 10551 10550 10550 10550 10552 10553 10553 10555 10557 10562 10565 10563 10565 10569 10572 10577 10581 10584 10588 10592 10595 10600 10604 10607 10610 10612 10616 10622 10627 10632 10635 10641 10647 10647 10648 10655 10671 10687 10694 10696 10698 10698 10699 10703 10706 10709 10714 10719 10724 10728 10728 10732 10739 10742 10748 10755 10756 10754 10756 10758 10765 10783 10790 10786 10791 10793
10628 10624 10619 10613 10607 10601 10595 10589 10584 10579 10574 10570 10566 10562 10559 10555 10552 10548 10545 10544 10542 10541 10541 10539 10539 10539 10540 10542 10543 10544 10546 10553 10555 10549 10552 10558 10562 10566 10569 10573 10577 10582 10585 10590 10594 10598 10601 10604 10609 10613 10618 10624 10629 10634 10636 10636 10640 10651 10668 10679 10685 10687 10687 10689 10691 10695 10700 10702 10709 10715 10716 10718 10723 10731 10737 10738 10744 10748 10748 10750 10751 10755 10765 10776 10783 10784 10788 10790
10622 10617 10612 10607 10601 10594 10588 10582 10576 10571 10566 10562 10557 10554 10550 10546 10543 10539 10536 10533 10531 10530 10529 10528 10528 10528 10530 10531 10531 10532 10535 10542 10543 10539 10542 10547 10550 10554 10558 10562 10566 10571 10575 10579 10583 10588 10592 10595 10599 10603 10609 10615 10620 10623 10626 10629 10636 10651 10665 10671 10677 10677 10676 10680 10682 10688 10694 10696 10702 10707 10708 10713 10723 10729 10728 10732 10742 10742 10743 10747 10745 10752 10763 10768 10776 10781 10783 10788
10616 10611 10606 10600 10594 10587 10580 10574 10569 10563 10558 10553 10549 10544 10540 10536 10532 10529 10526 10523 10521 10518 10517 10516 10516 10516 10518 10519 10520 10520 10522 10530 10531 10530 10533 10534 10536 10542 10547 10550 10555 10559 10564 10569 10573 10577 10582 10585 10589 10592 10599 10606 10610 10616 10620 10625 10635 10650 10659 10662 10667 10665 10664 10670 10675 10683 10687 10689 10695 10700 10706 10712 10719 10718 10719 10731 10741 10740 10739 10741 10740 10749 10760 10763 10770 10775 10777 10785
10610 10605 10599 10593 10587 10580 10573 10567 10561 10555 10550 10545 10540 10535 10530 10525 10520 10517 10515 10512 10510 10507 10505 10505 10503 10504 10505 10506 10507 10504 10509 10521 10523 10519 10520 10523 10525 10529 10535 10539 10543 10547 10552 10557 10562 10567 10571 10574 10578 10583 10592 10599 10605 10611 10615 10623 10635 10644 10647 10651 10653 10650 10655 10663 10670 10678 10681 10684 10689 10697 10705 10708 10707 10706 10717 10734 10737 10735 10732 10732 10735 10744 10755 10758 10763 10769 10772 10779
10604 10599 10593 10587 10580 10573 10566 10560 10554 10548 10542 10537 10531 10526 10520 10515 10510 10506 10503 10501 10498 10495 10494 10493 10491 10491 10491 10493 10490 10486 10498 10512 10513 10507 10507 10512 10513 10515 10523 10527 10530 10535 10539 10546 10550 10555 10560 10564 10568 10575 10584 10590 10596 10602 10607 10619 10628 10632 10635 10640 10642 10643 10652 10661 10668 10675 10676 10680 10687 10695 10699 10696 10694 10702 10722 10734 10729 10726 10724 10724 10730 10737 10747 10753 10756 10764 10769 10773
10598 10593 10587 10581 10574 10566 10559 10552 10546 10540 10535 10529 10523 10517 10511 10505 10500 10496 10493 10490 10486 10483 10481 10480 10480 10478 10479 10479 10471 10471 10487 10497 10498 10497 10496 10498 10500 10503 10510 10513 10518 10523 10528 10534 10539 10544 10549 10554 10559 10567 10575 10580 10587 10594 10601 10612 10618 10621 10628 10634 10638 10641 10650 10660 10666 10670 10672 10678 10686 10688 10685 10684 10692 10709 10727 10728 10718 10717 10719 10722 10727 10731 10740 10747 10753 10761 10766 10767
10592 10587 10580 10574 10567 10559 10552 10545 10538 10532 10527 10520 10514 10507 10501 10495 10491 10487 10482 10479 10475 10472 10469 10468 10468 10467 10466 10462 10454 10460 10473 10478 10483 10486 10484 10484 10487 10491 10496 10500 10505 10510 10516 10521 10526 10532 10539 10544 10550 10558 10564 10572 10580 10587 10597 10605 10609 10616 10622 10627 10632 10636 10648 10659 10662 10665 10670 10676 10680 10675 10674 10685 10701 10716 10724 10717 10708 10711 10716 10719 10721 10725 10732 10740 10749 10756 10761 10764
10587 10580 10574 10567 10560 10552 10545 10537 10530 10524 10518 10512 10506 10498 10491 10486 10481 10476 10472 10468 10464 10460 10458 10456 10455 10454 10452 10445 10440 10448 10457 10461 10466 10469 10470 10471 10474 10478 10482 10488 10492 10498 10504 10509 10514 10520 10528 10534 10541 10549 10556 10565 10573 10580 10589 10594 10599 10609 10612 10618 10626 10635 10648 10653 10654 10659 10666 10671 10669 10664 10674 10694 10706 10711 10711 10703 10702 10708 10710 10713 10717 10721 10725 10734 10745 10751 10756 10760
10581 10575 10568 10561 10554 10546 10538 10530 10523 10516 10510 10504 10497 10490 10482 10476 10471 10466 10460 10456 10452 10449 10446 10443 10441 10439 10435 10429 10429 10436 10440 10445 10449 10450 10454 10458 10461 10464 10468 10474 10480 10485 10492 10497 10502 10508 10516 10523 10531 10541 10547 10556 10563 10569 10578 10583 10591 10600 10604 10616 10628 10636 10643 10644 10648 10655 10660 10662 10659 10660 10679 10697 10700 10700 10697 10694 10700 10704 10704 10709 10714 10718 10720 10727 10738 10745 10750 10755
10576 10569 10562 10555 10548 10540 10531 10523 10515 10508 10502 10496 10489 10481 10474 10467 10463 10456 10450 10445 10441 10438 10434 10430 10428 10425 10421 10417 10418 10422 10424 10429 10433 10436 10441 10442 10444 10449 10453 10461 10467 10471 10478 10484 10490 10496 10504 10512 10521 10531 10538 10546 10554 10562 10569 10574 10584 10593 10602 10616 10624 10628 10633 10638 10644 10649 10652 10653 10652 10662 10681 10690 10689 10691 10689 10690 10696 10697 10699 10706 10712 10716 10716 10717 10728 10741 10745 10749
10571 10564 10556 10549 10541 10533 10525 10516 10507 10500 10494 10488 10481 10473 10466 10460 10454 10447 10440 10435 10430 10427 10424 10419 10416 10413 10410 10409 10408 10409 10412 10416 10421 10425 10427 10427 10428 10432 10439 10448 10453 10458 10464 10470 10477 10485 10493 10501 10510 10519 10528 10536 10545 10553 10558 10568 10583 10594 10604 10613 10615 10617 10624 10630 10636 10641 10644 10647 10653 10663 10673 10677 10680 10681 10681 10683 10689 10692 10698 10705 10709 10712 10709 10709 10721 10735 10741 10745
10565 10558 10550 10543 10535 10527 10518 10509 10500 10492 10486 10480 10473 10466 10458 10452 10445 10438 10431 10427 10422 10417 10412 10409 10407 10403 10401 10402 10399 10399 10403 10406 10410 10412 10412 10413 10416 10418 10423 10431 10437 10443 10450 10456 10464 10473 10481 10489 10497 10506 10516 10526 10536 10545 10556 10574 10587 10592 10597 10600 10601 10607 10616 10625 10631 10635 10639 10644 10651 10657 10663 10670 10672 10671 10673 10678 10684 10690 10696 10699 10702 10703 10701 10704 10715 10728 10737 10741
10560 10553 10545 10537 10529 10520 10512 10503 10494 10486 10478 10472 10466 10459 10452 10445 10437 10429 10422 10418 10414 10408 10403 10401 10398 10394 10393 10393 10390 10390 10393 10394 10397 10398 10398 10401 10405 10406 10408 10414 10421 10429 10436 10445 10453 10460 10467 10475 10483 10494 10508 10521 10533 10542 10558 10572 10575 10575 10578 10580 10588 10600 10612 10621 10625 10628 10632 10637 10644 10650 10656 10662 10663 10664 10670 10676 10680 10687 10691 10690 10693 10695 10697 10703 10710 10722 10732 10736
10556 10547 10539 10531 10523 10514 10506 10496 10488 10480 10471 10464 10457 10451 10445 10438 10431 10422 10414 10411 10406 10398 10394 10394 10390 10386 10385 10384 10382 10381 10382 10384 10387 10386 10387 10391 10394 10395 10397 10401 10408 10416 10424 10433 10440 10444 10451 10460 10473 10490 10505 10517 10525 10534 10548 10557 10555 10558 10562 10569 10583 10595 10604 10612 10616 10622 10625 10631 10641 10645 10646 10650 10656 10662 10667 10670 10673 10679 10684 10683 10686 10692 10697 10703 10708 10717 10727 10732
10551 10542 10534 10525 10517 10508 10500 10491 10482 10474 10465 10458 10451 10444 10438 10431 10424 10418 10409 10404 10402 10393 10386 10385 10382 10378 10377 10376 10376 10374 10373 10374 10376 10377 10378 10381 10384 10385 10387 10391 10397 10404 10412 10418 10423 10428 10436 10449 10469 10489 10500 10507 10513 10522 10535 10542 10543 10549 10557 10567 10579 10589 10598 10605 10610 10616 10619 10627 10637 10637 10636 10645 10655 10657 10659 10661 10665 10674 10679 10679 10685 10692 10696 10701 10705 10712 10721 10727
10546 10537 10529 10520 10511 10502 10494 10485 10476 10468 10460 10452 10445 10438 10431 10424 10417 10412 10404 10397 10394 10390 10383 10379 10375 10372 10369 10368 10368 10368 10366 10365 10365 10367 10370 10373 10375 10374 10376 10382 10387 10392 10399 10402 10408 10415 10424 10445 10470 10485 10489 10493 10500 10510 10522 10530 10535 10543 10553 10562 10572 10585 10594 10599 10605 10611 10615 10624 10631 10629 10632 10643 10649 10649 10651 10657 10664 10673 10676 10678 10683 10689 10693 10697 10701 10708 10715 10721
10542 10532 10523 10514 10506 10497 10488 10480 10471 10462 10455 10446 10439 10432 10425 10417 10409 10403 10398 10391 10385 10382 10379 10374 10370 10366 10363 10360 10359 10360 10360 10358 10356 10357 10360 10363 10365 10365 10365 10372 10377 10381 10386 10392 10399 10405 10418 10444 10465 10470 10470 10476 10486 10497 10508 10518 10528 10538 10548 10558 10570 10582 10588 10596 10605 10608 10611 10618 10622 10623 10627 10635 10640 10642 10648 10657 10664 10667 10670 10675 10680 10684 10690 10694 10698 10704 10709 10716
10537 10528 10518 10509 10501 10492 10483 10475 10467 10457 10449 10441 10433 10426 10419 10411 10403 10396 10390 10385 10379 10374 10372 10368 10364 10362 10358 10354 10352 10353 10352 10351 10349 10348 10351 10352 10354 10357 10358 10361 10367 10374 10379 10384 10390 10397 10414 10438 10448 10447 10451 10461 10474 10486 10497 10508 10522 10534 10544 10556 10569 10578 10585 10594 10598 10598 10602 10607 10611 10616 10621 10629 10637 10642 10649 10656 10659 10661 10666 10672 10675 10681 10689 10692 10695 10700 10704 10712
10534 10524 10514 10504 10496 10488 10479 10470 10462 10453 10444 10437 10429 10422 10415 10407 10399 10392 10384 10379 10374 10368 10365 10362 10358 10356 10354 10349 10346 10347 10345 10344 10342 10341 10342 10343 10345 10347 10350 10352 10359 10365 10369 10373 10378 10387 10407 10424 10426 10428 10438 10452 10466 10479 10490 10502 10517 10529 10540 10554 10565 10572 10578 10581 10584 10588 10593 10601 10610 10614 10619 10629 10637 10639 10646 10651 10654 10658 10663 10668 10674 10681 10687 10689 10691 10694 10701 10709
10530 10520 10510 10500 10491 10484 10475 10466 10458 10449 10440 10432 10424 10418 10411 10403 10394 10388 10381 10374 10369 10363 10359 10356 10352 10350 10349 10344 10341 10341 10339 10337 10335 10333 10334 10336 10337 10338 10341 10346 10350 10354 10358 10362 10368 10381 10401 10411 10411 10417 10430 10444 10458 10471 10482 10495 10509 10523 10538 10550 10557 10563 10567 10571 10577 10582 10589 10603 10610 10608 10613 10624 10628 10633 10643 10648 10651 10656 10659 10667 10674 10680 10683 10684 10686 10691 10699 10706
10527 10517 10507 10497 10487 10479 10471 10463 10454 10445 10436 10428 10420 10413 10406 10399 10390 10383 10377 10370 10364 10359 10354 10351 10348 10344 10342 10339 10337 10335 10333 10331 10329 10326 10326 10328 10331 10331 10334 10338 10341 10343 10348 10353 10363 10380 10395 10398 10398 10408 10422 10434 10447 10462 10475 10486 10501 10521 10535 10540 10546 10554 10559 10566 10573 10577 10588 10598 10595 10594 10604 10613 10621 10632 10640 10643 10647 10651 10658 10666 10673 10677 10679 10680 10683 10689 10697 10701
10524 10514 10504 10493 10484 10475 10467 10458 10450 10441 10433 10425 10416 10409 10401 10394 10386 10378 10372 10366 10360 10354 10350 10346 10343 10340 10336 10333 10331 10329 10327 10326 10322 10320 10319 10321 10324 10326 10327 10330 10333 10336 10341 10351 10365 10376 10380 10379 10385 10398 10409 10422 10438 10455 10468 10478 10497 10518 10526 10530 10540 10548 10552 10558 10563 10571 10581 10579 10579 10591 10600 10609 10623 10632 10633 10637 10643 10649 10658 10665 10669 10673 10675 10677 10681 10688 10694 10697
10520 10511 10501 10491 10480 10471 10463 10454 10445 10437 10429 10420 10412 10403 10396 10389 10382 10375 10368 10361 10355 10349 10344 10341 10338 10335 10332 10328 10325 10323 10321 10319 10317 10315 10314 10315 10318 10320 10321 10323 10327 10331 10338 10350 10359 10361 10363 10368 10377 10388 10399 10414 10432 10446 10456 10470 10493 10510 10515 10521 10530 10535 10540 10545 10550 10560 10565 10563 10577 10593 10598 10611 10626 10626 10627 10635 10642 10650 10657 10661 10665 10669 10671 10674 10679 10685 10690 10694
10517 10508 10498 10488 10478 10468 10459 10448 10439 10432 10424 10415 10407 10399 10391 10385 10378 10372 10365 10358 10352 10345 10340 10336 10333 10330 10327 10323 10320 10317 10315 10313 10311 10310 10309 10310 10312 10314 10316 10318 10322 10326 10333 10344 10347 10348 10354 10362 10370 10382 10397 10412 10426 10437 10447 10465 10486 10496 10501 10509 10517 10523 10529 10533 10539 10547 10546 10552 10575 10591 10598 10612 10620 10620 10627 10636 10642 10649 10653 10656 10661 10665 10667 10671 10677 10683 10687 10691
10514 10505 10495 10485 10475 10465 10456 10448 10440 10432 10423 10414 10405 10396 10388 10382 10375 10368 10362 10355 10349 10343 10337 10332 10329 10325 10322 10319 10316 10313 10310 10308 10306 10306 10306 10306 10307 10309 10311 10314 10317 10321 10327 10335 10337 10339 10347 10357 10367 10381 10395 10407 10418 10428 10442 10460 10475 10481 10488 10496 10504 10513 10517 10519 10528 10532 10534 10554 10580 10591 10596 10606 10614 10622 10629 10632 10638 10644 10647 10652 10657 10660 10664 10668 10675 10680 10684 10687
10510 10502 10493 10482 10471 10462 10455 10449 10440 10430 10420 10412 10403 10394 10386 10380 10373 10365 10358 10353 10346 10341 10336 10330 10326 10323 10318 10314 10312 10309 10306 10304 10303 10303 10302 10302 10303 10305 10307 10310 10313 10316 10321 10328 10330 10334 10345 10354 10362 10372 10383 10394 10406 10420 10437 10451 10461 10468 10478 10485 10494 10501 10503 10510 10520 10525 10542 10571 10590 10593 10595 10606 10618 10624 10624 10626 10635 10640 10644 10649 10652 10656 10661 10665 10672 10677 10681 10684
10507 10498 10490 10480 10469 10460 10452 10444 10433 10423 10415 10408 10401 10393 10386 10378 10370 10362 10356 10350 10344 10339 10335 10328 10323 10320 10315 10311 10308 10306 10304 10302 10301 10300 10300 10300 10300 10302 10304 10306 10310 10313 10318 10324 10328 10335 10344 10351 10358 10368 10378 10388 10399 10414 10430 10443 10452 10462 10472 10479 10488 10493 10499 10509 10520 10535 10561 10583 10587 10587 10594 10608 10618 10619 10619 10624 10632 10636 10640 10644 10648 10654 10658 10662 10669 10675 10678 10681
10504 10495 10487 10477 10466 10456 10447 10437 10428 10420 10414 10407 10400 10394 10386 10376 10367 10360 10353 10347 10341 10336 10331 10326 10320 10316 10312 10308 10305 10303 10301 10300 10299 10298 10297 10297 10298 10300 10302 10304 10307 10311 10315 10321 10326 10332 10339 10347 10356 10366 10377 10387 10399 10414 10429 10440 10449 10460 10469 10479 10487 10494 10505 10518 10533 10555 10577 10582 10579 10582 10594 10607 10614 10615 10617 10619 10625 10631 10635 10640 10646 10652 10656 10660 10667 10673 10677 10681
10502 10492 10483 10474 10464 10454 10443 10434 10427 10420 10414 10406 10400 10393 10384 10374 10367 10360 10353 10347 10341 10334 10327 10323 10319 10314 10309 10306 10303 10300 10298 10297 10297 10296 10295 10295 10297 10298 10300 10302 10305 10308 10311 10316 10321 10327 10334 10342 10350 10358 10368 10380 10394 10410 10423 10431 10441 10453 10463 10470 10478 10491 10509 10525 10544 10565 10572 10566 10566 10577 10591 10603 10606 10607 10608 10611 10621 10629 10633 10638 10644 10650 10655 10658 10665 10673 10677 10680
10502 10491 10481 10472 10463 10453 10443 10434 10427 10420 10412 10404 10395 10387 10379 10372 10366 10360 10353 10347 10341 10334 10327 10322 10317 10313 10309 10305 10302 10300 10297 10296 10295 10294 10294 10294 10295 10296 10298 10301 10303 10306 10310 10314 10319 10325 10331 10338 10345 10353 10363 10373 10384 10395 10408 10423 10440 10451 10457 10466 10480 10497 10513 10527 10544 10553 10547 10544 10555 10572 10587 10595 10596 10599 10603 10610 10621 10627 10631 10637 10643 10649 10653 10656 10664 10671 10675 10678
10500 10490 10480 10472 10463 10453 10444 10435 10428 10420 10412 10402 10392 10382 10375 10370 10364 10359 10353 10345 10338 10333 10328 10322 10316 10312 10308 10304 10301 10299 10297 10295 10294 10294 10293 10293 10294 10295 10297 10299 10302 10305 10309 10313 10318 10324 10330 10336 10343 10351 10360 10369 10377 10387 10401 10418 10432 10441 10453 10470 10486 10497 10508 10520 10530 10529 10525 10537 10557 10572 10581 10587 10593 10600 10605 10611 10619 10625 10630 10636 10640 10646 10651 10654 10662 10668 10672 10675
10498 10489 10479 10470 10461 10453 10445 10437 10428 10420 10411 10402 10392 10383 10376 10371 10365 10358 10351 10343 10336 10331 10326 10321 10315 10311 10307 10304 10301 10299 10297 10295 10293 10293 10293 10293 10293 10294 10296 10298 10301 10304 10308 10312 10317 10322 10327 10334 10341 10349 10357 10365 10375 10387 10401 10413 10422 10435 10453 10468 10474 10481 10492 10505 10512 10513 10522 10543 10561 10568 10574 10584 10594 10601 10606 10611 10616 10623 10629 10634 10639 10645 10648 10652 10658 10664 10669 10673
10495 10486 10477 10468 10459 10452 10446 10437 10427 10418 10409 10401 10393 10385 10377 10371 10364 10356 10348 10341 10335 10330 10325 10320 10315 10311 10307 10304 10300 10298 10297 10295 10294 10293 10293 10293 10293 10294 10296 10298 10300 10304 10307 10311 10316 10321 10326 10332 10339 10346 10355 10365 10377 10388 10399 10411 10424 10437 10451 10459 10465 10475 10488 10499 10505 10513 10531 10550 10559 10563 10571 10584 10593 10598 10604 10609 10612 10619 10627 10632 10637 10641 10645 10649 10654 10660 10666 10670
10494 10486 10477 10468 10458 10450 10443 10433 10423 10415 10408 10401 10394 10386 10379 10371 10363 10354 10346 10340 10334 10329 10325 10321 10316 10311 10307 10304 10300 10298 10296 10295 10294 10294 10293 10293 10294 10295 10297 10298 10301 10303 10307 10311 10316 10321 10327 10333 10340 10347 10356 10368 10382 10393 10403 10414 10425 10434 10444 10454 10466 10479 10490 10498 10506 10519 10535 10547 10552 10557 10570 10584 10590 10594 10601 10605 10607 10615 10624 10629 10633 10636 10640 10644 10649 10656 10664 10667
10491 10482 10475 10466 10455 10446 10437 10429 10421 10415 10409 10403 10397 10390 10382 10372 10363 10354 10346 10340 10335 10330 10326 10321 10316 10312 10308 10305 10301 10299 10297 10296 10295 10294 10294 10294 10295 10296 10298 10299 10302 10304 10308 10312 10316 10321 10328 10334 10342 10351 10360 10369 10379 10389 10400 10413 10424 10434 10444 10454 10466 10481 10492 10500 10511 10524 10536 10545 10552 10560 10572 10582 10586 10591 10597 10600 10602 10611 10619 10624 10629 10632 10635 10639 10646 10654 10660 10664
10487 10477 10470 10463 10454 10442 10432 10426 10421 10416 10410 10403 10396 10389 10380 10369 10361 10354 10348 10342 10337 10332 10326 10322 10318 10313 10309 10306 10303 10300 10298 10297 10296 10295 10295 10296 10296 10298 10299 10301 10303 10305 10309 10312 10317 10322 10328 10335 10343 10350 10357 10363 10369 10379 10392 10406 10418 10428 10437 10448 10461 10477 10491 10503 10516 10529 10539 10546 10554 10562 10570 10577 10581 10586 10591 10593 10598 10607 10615 10621 10625 10629 10631 10636 10644 10651 10657 10661
10487 10477 10467 10459 10451 10442 10434 10426 10418 10411 10405 10397 10390 10384 10377 10369 10361 10355 10350 10344 10338 10333 10328 10324 10320 10315 10311 10307 10304 10302 10300 10299 10298 10297 10297 10298 10298 10299 10301 10303 10304 10307 10310 10314 10319 10324 10329 10335 10340 10346 10351 10358 10366 10377 10387 10395 10405 10416 10429 10442 10454 10467 10482 10499 10514 10524 10533 10542 10550 10557 10565 10570 10574 10580 10584 10588 10595 10604 10611 10617 10621 10625 10629 10635 10643 10649 10653 10657
10484 10477 10467 10457 10449 10443 10437 10429 10419 10409 10401 10395 10390 10383 10375 10369 10364 10358 10352 10346 10340 10335 10329 10325 10321 10318 10314 10310 10307 10304 10302 10300 10300 10298 10298 10299 10301 10302 10303 10305 10307 10309 10312 10315 10320 10325 10329 10335 10341 10346 10352 10358 10366 10375 10381 10389 10400 10414 10428 10441 10452 10462 10476 10492 10504 10513 10521 10532 10541 10550 10558 10564 10569 10576 10581 10587 10595 10602 10608 10613 10618 10623 10628 10635 10642 10646 10649 10654
10480 10473 10466 10458 10450 10443 10436 10428 10420 10412 10405 10399 10393 10385 10375 10370 10365 10358 10351 10345 10341 10336 10332 10328 10324 10321 10317 10313 10310 10307 10304 10302 10301 10301 10300 10301 10303 10304 10306 10308 10310 10312 10315 10318 10320 10325 10330 10336 10343 10349 10356 10364 10373 10381 10389 10397 10408 10418 10429 10441 10452 10461 10473 10484 10493 10502 10513 10526 10535 10543 10551 10557 10563 10571 10579 10586 10593 10600 10604 10609 10615 10621 10627 10634 10639 10642 10645 10650
10478 10470 10462 10456 10451 10444 10437 10431 10423 10417 10411 10404 10394 10385 10378 10373 10366 10358 10351 10346 10341 10337 10333 10330 10326 10323 10319 10316 10313 10309 10306 10305 10303 10303 10303 10303 10304 10306 10307 10310 10313 10315 10318 10320 10322 10326 10331 10337 10344 10350 10356 10364 10373 10382 10391 10401 10411 10421 10432 10444 10454 10465 10476 10483 10487 10497 10511 10523 10530 10537 10545 10552 10559 10568 10577 10584 10590 10596 10600 10604 10611 10620 10627 10632 10636 10639 10642 10647
10477 10469 10461 10454 10447 10439 10433 10428 10423 10417 10411 10402 10393 10387 10383 10377 10368 10360 10354 10349 10344 10339 10335 10330 10327 10325 10322 10318 10315 10312 10309 10307 10306 10305 10305 10305 10307 10308 10309 10311 10314 10317 10321 10323 10325 10328 10333 10339 10345 10351 10357 10363 10369 10375 10383 10394 10409 10422 10435 10447 10459 10471 10481 10485 10491 10502 10512 10518 10524 10533 10542 10549 10557 10566 10574 10580 10586 10593 10597 10601 10609 10619 10625 10629 10633 10635 10639 10644
10477 10469 10461 10453 10445 10437 10430 10424 10419 10413 10407 10399 10393 10390 10385 10377 10369 10362 10357 10352 10346 10341 10336 10332 10328 10325 10323 10320 10317 10314 10312 10310 10309 10307 10307 10308 10309 10310 10312 10313 10316 10319 10322 10325 10328 10330 10334 10340 10347 10353 10359 10366 10373 10379 10384 10393 10405 10418 10430 10443 10456 10469 10480 10488 10497 10505 10510 10516 10526 10536 10542 10549 10557 10566 10573 10580 10587 10591 10594 10600 10609 10617 10623 10627 10630 10632 10636 10641
10474 10467 10460 10452 10446 10439 10431 10424 10418 10412 10406 10400 10396 10391 10384 10377 10371 10365 10359 10354 10348 10343 10339 10335 10330 10327 10324 10322 10320 10317 10315 10313 10311 10310 10310 10310 10311 10312 10314 10315 10317 10321 10324 10327 10330 10333 10336 10341 10347 10352 10359 10367 10375 10383 10391 10398 10407 10417 10427 10438 10452 10465 10476 10486 10495 10502 10510 10522 10532 10538 10544 10552 10560 10568 10575 10581 10585 10588 10593 10601 10610 10616 10621 10625 10627 10630 10633 10637
10470 10464 10457 10450 10444 10438 10430 10424 10418 10413 10407 10402 10397 10391 10385 10379 10373 10367 10362 10356 10351 10346 10342 10338 10334 10330 10326 10324 10322 10320 10318 10316 10315 10313 10313 10313 10314 10315 10316 10317 10319 10322 10327 10330 10332 10335 10338 10342 10347 10353 10359 10367 10376 10385 10394 10403 10412 10420 10427 10436 10447 10459 10469 10478 10487 10498 10513 10527 10533 10538 10546 10554 10560 10567 10574 10579 10582 10585 10592 10602 10609 10615 10620 10622 10624 10627 10631 10634
10470 10463 10456 10448 10442 10435 10429 10423 10418 10413 10408 10403 10398 10393 10387 10380 10375 10370 10364 10359 10353 10348 10344 10340 10336 10332 10329 10327 10325 10323 10321 10319 10318 10316 10316 10316 10317 10318 10318 10319 10321 10325 10329 10332 10334 10337 10340 10344 10349 10355 10361 10369 10377 10386 10395 10404 10411 10419 10426 10434 10443 10453 10463 10473 10484 10498 10514 10524 10527 10533 10543 10552 10559 10565 10570 10574 10578 10583 10591 10600 10607 10612 10615 10618 10621 10625 10629 10631
10468 10462 10456 10449 10442 10435 10427 10421 10417 10413 10409 10404 10399 10393 10388 10382 10377 10371 10366 10360 10355 10351 10347 10342 10338 10336 10333 10331 10329 10327 10325 10323 10321 10320 10319 10319 10320 10321 10321 10321 10323 10326 10330 10334 10337 10339 10342 10346 10350 10356 10362 10369 10377 10384 10392 10400 10407 10417 10427 10435 10440 10446 10456 10468 10482 10498 10510 10515 10521 10531 10543 10551 10558 10563 10566 10571 10576 10583 10592 10600 10605 10608 10611 10615 10619 10623 10625 10628